Newport News, VA

8:39 AM EST on February 28, 2017 (GMT -0500)
Newport News-Williamsburg International

Weather History for KPHF - December, 2013

Change the Weather History Date:

Saturday, December 7, 2013

  Actual Average Record
Temperature  
Mean Temperature 46 °F -  
Max Temperature 50 °F 58 °F 80 °F (1998)
Min Temperature 39 °F 36 °F 19 °F (2002)
Degree Days  
Heating Degree Days 20    
Moisture  
Dew Point 38 °F    
Average Humidity 76    
Maximum Humidity 87    
Minimum Humidity 56    
Precipitation  
Precipitation 0.48 in - - ()
Sea Level Pressure  
Sea Level Pressure 30.27 in    
Wind  
Wind Speed 9 mph (North)    
Max Wind Speed 15 mph    
Max Gust Speed 26 mph    
Visibility 8 miles    
Events Rain    
Averages and records for this station are not official NWS values.
T = Trace of Precipitation, MM = Missing Value Source: NWS Daily Summary

Daily Weather History Graph

Daily Weather History Graph

Search for Another Location

Airport or City:

Trip Planner

Search our weather history database for the weather conditions in past years. The results will help you decide how hot, cold, wet, or windy it might be!

Date:

Astronomy

Dec. 07, 2013 Rise Set
Actual Time 7:06 AM EST 4:48 PM EST
Civil Twilight 6:37 AM EST 5:17 PM EST
Nautical Twilight 6:05 AM EST 5:49 PM EST
Astronomical Twilight 5:33 AM EST 6:21 PM EST
Moon 10:54 AM EST (12/7) 10:22 PM EST (12/7)
Length of Visible Light 10h 39m
Length of Day
9h 42m
Waxing Crescent, 29% of the Moon is Illuminated
Dec 7
Waxing Crescent
Dec 9
First Quarter
Dec 17
Full
Dec 25
Last Quarter
Jan 1
New

Hourly Weather History & Observations

Time (EST) Temp. Windchill Dew Point Humidity Pressure Visibility Wind Dir Wind Speed Gust Speed Precip Events Conditions
12:54 AM 50.0 °F - 45.0 °F 83% 30.09 in 8.0 mi Variable 6.9 mph - N/A   Overcast
1:54 AM 48.9 °F - 44.1 °F 83% 30.11 in 6.0 mi North 9.2 mph - 0.00 in Rain Light Rain
2:40 AM 48.2 °F - 42.8 °F 82% 30.11 in 10.0 mi East 5.8 mph - 0.02 in   Overcast
2:54 AM 48.0 °F - 43.0 °F 83% 30.09 in 5.0 mi SE 6.9 mph - 0.02 in Rain Light Rain
3:10 AM 48.2 °F - 42.8 °F 82% 30.10 in 2.5 mi ENE 5.8 mph - 0.03 in Rain Light Rain
3:13 AM 48.2 °F - 42.8 °F 82% 30.09 in 3.0 mi NE 5.8 mph - 0.03 in Rain Light Rain
3:19 AM 46.4 °F 44.3 °F 42.8 °F 87% 30.10 in 3.0 mi NNE 4.6 mph - 0.06 in Rain Rain
3:31 AM 46.4 °F 41.9 °F 42.8 °F 87% 30.13 in 4.0 mi North 9.2 mph - 0.09 in Rain Light Rain
3:42 AM 46.4 °F 41.9 °F 42.8 °F 87% 30.13 in 2.0 mi North 9.2 mph - 0.15 in Rain Rain
3:52 AM 46.4 °F 42.4 °F 42.8 °F 87% 30.13 in 2.5 mi North 8.1 mph - 0.20 in Rain Rain
3:54 AM 46.9 °F - 43.0 °F 86% 30.14 in 3.0 mi NNE 5.8 mph - 0.20 in Rain Rain
4:27 AM 46.4 °F 41.9 °F 42.8 °F 87% 30.15 in 3.0 mi North 9.2 mph - 0.13 in Rain Rain
4:40 AM 46.4 °F 40.4 °F 42.8 °F 87% 30.15 in 4.0 mi North 13.8 mph 19.6 mph 0.18 in Rain Rain
4:54 AM 45.0 °F 38.2 °F 39.9 °F 82% 30.18 in 10.0 mi North 15.0 mph 26.5 mph 0.18 in Rain Light Rain
5:22 AM 44.6 °F 37.8 °F 37.4 °F 76% 30.19 in 6.0 mi North 15.0 mph 26.5 mph 0.02 in Rain Light Rain
5:36 AM 42.8 °F 37.0 °F 37.4 °F 81% 30.19 in 10.0 mi North 10.4 mph 24.2 mph 0.02 in Rain Light Rain
5:43 AM 42.8 °F 37.0 °F 37.4 °F 81% 30.19 in 10.0 mi NNE 10.4 mph - 0.02 in Rain Light Rain
5:54 AM 43.0 °F 37.2 °F 37.9 °F 82% 30.22 in 10.0 mi North 10.4 mph 18.4 mph 0.02 in Rain Light Rain
6:01 AM 42.8 °F 35.4 °F 37.4 °F 81% 30.25 in 9.0 mi NNW 15.0 mph - 0.00 in Rain Light Rain
6:54 AM 43.0 °F 38.2 °F 37.9 °F 82% 30.25 in 10.0 mi North 8.1 mph - 0.03 in Rain Light Rain
7:18 AM 42.8 °F 38.0 °F 37.4 °F 81% 30.27 in 7.0 mi North 8.1 mph - 0.02 in Rain Light Rain
7:54 AM 43.0 °F 37.2 °F 39.0 °F 86% 30.28 in 10.0 mi North 10.4 mph - 0.03 in   Overcast
8:54 AM 44.1 °F 38.1 °F 39.0 °F 82% 30.31 in 10.0 mi North 11.5 mph - 0.00 in   Overcast
9:09 AM 44.6 °F 39.2 °F 39.2 °F 81% 30.32 in 10.0 mi North 10.4 mph - N/A   Overcast
9:54 AM 43.0 °F 36.8 °F 37.9 °F 82% 30.35 in 10.0 mi North 11.5 mph 17.3 mph 0.00 in   Overcast
10:54 AM 45.0 °F 39.7 °F 39.0 °F 80% 30.35 in 10.0 mi North 10.4 mph - N/A   Overcast
11:54 AM 45.0 °F 38.9 °F 37.9 °F 76% 30.35 in 10.0 mi North 12.7 mph - N/A   Overcast
12:04 PM 44.6 °F 40.2 °F 37.4 °F 76% 30.35 in 10.0 mi North 8.1 mph - N/A   Overcast
12:54 PM 46.0 °F 41.4 °F 37.0 °F 71% 30.34 in 10.0 mi North 9.2 mph - N/A   Overcast
1:47 PM 46.4 °F 40.4 °F 35.6 °F 66% 30.35 in 10.0 mi North 13.8 mph 19.6 mph N/A   Overcast
1:54 PM 46.9 °F - 36.0 °F 66% 30.35 in 10.0 mi North 11.5 mph 19.6 mph N/A   Overcast
2:54 PM 48.0 °F - 34.0 °F 58% 30.35 in 10.0 mi North 11.5 mph - N/A   Mostly Cloudy
3:54 PM 46.9 °F - 32.0 °F 56% 30.37 in 10.0 mi NNE 10.4 mph - N/A   Overcast
4:54 PM 46.0 °F 42.5 °F 34.0 °F 63% 30.40 in 10.0 mi North 6.9 mph - N/A   Overcast
5:54 PM 46.0 °F 41.4 °F 33.1 °F 61% 30.43 in 10.0 mi North 9.2 mph - N/A   Overcast
6:54 PM 46.0 °F 42.5 °F 33.1 °F 61% 30.45 in 10.0 mi North 6.9 mph - N/A   Overcast
7:54 PM 45.0 °F 41.8 °F 32.0 °F 60% 30.48 in 10.0 mi North 5.8 mph - N/A   Overcast
8:54 PM 44.1 °F 41.5 °F 33.1 °F 65% 30.49 in 10.0 mi North 4.6 mph - N/A   Overcast
9:54 PM 42.1 °F 37.7 °F 30.0 °F 62% 30.50 in 10.0 mi North 6.9 mph - N/A   Mostly Cloudy
10:54 PM 41.0 °F 34.7 °F 30.0 °F 65% 30.50 in 10.0 mi North 10.4 mph - N/A   Partly Cloudy
11:54 PM 39.9 °F 35.1 °F 28.9 °F 65% 30.50 in 10.0 mi North 6.9 mph - N/A   Scattered Clouds